[[{"header":{"parameterUnit":"m.s-1","parameterCategory":1,"la1":30.2992,"la2":30.254,"lo1":-89.0895,"lo2":-89.0443,"dy":0.0025,"dx":0.0025,"nx":19,"ny":19,"refTime":"2026-04-16T09:00:00:Z","depth":0,"parameterNumber":2,"parameterNumberName":"U-component_of_WINDS"},"data":[0,0,0,0.7715,0.7715,0.7697,0.7697,0.7681,0.7681,0,0,0,0,0,0,0,0,0,0,0,0.7727,0.7727,0.7715,0.7715,0.7697,0.7697,0.7681,0.7681,0,0,0,0,0,0,0,0,0,0,0,0.7727,0.7727,0.7727,0.7715,0.7697,0.7697,0.7681,0.7692,0,0,0,0,0,0,0,0,0,0,0.7708,0.7725,0.7727,0.7727,0.7715,0.7697,0.7697,0.7692,0.7691,0.7693,0,0.7697,0,0.7689,0.768,0.768,0,0,0,0.771,0.7726,0.7716,0.7727,0.7715,0.7697,0.7704,0.7691,0.769,0.7692,0.7697,0.7696,0.7689,0.768,0.768,0.7708,0.7708,0,0,0.7711,0.7727,0.7717,0.7715,0.772,0.7704,0.7703,0.7691,0.7697,0.7697,0.7696,0.7688,0.768,0.768,0.7708,0.7708,0,0,0,0.7717,0.7728,0.7717,0.7716,0.7712,0.7704,0.7703,0.7698,0.7693,0.7696,0.7688,0.768,0.768,0.7707,0.7708,0.7739,0,0,0,0.7718,0.7731,0.7718,0.7727,0.7713,0.7705,0.771,0.7694,0.7692,0.7688,0.768,0.768,0.7707,0.7708,0.7738,0.7752,0,0,0,0.7726,0.7732,0.7732,0.7728,0.7721,0.7705,0.7699,0.7693,0.7688,0.768,0.768,0.7707,0.7708,0.7736,0.7749,0.7762,0,0,0,0.7739,0.7761,0.7733,0.7754,0.7721,0.7725,0.7699,0.7701,0.7699,0.768,0.7707,0.7708,0.7736,0.7748,0.776,0.7775,0.7783,0,0,0.7776,0.7766,0.7778,0.7751,0.7764,0.7727,0.7744,0.7727,0.7712,0.771,0.771,0.7738,0.7749,0.7762,0.7823,0.783,0,0,0,0.7794,0.7802,0.7802,0.7801,0.7788,0.7777,0.7756,0.7749,0.7747,0.7714,0.7747,0.7752,0.7759,0.7765,0.7771,0.7774,0.7712,0.7712,0.7712,0.7868,0.7847,0.7863,0.784,0.7838,0.7815,0.7811,0.7797,0.7778,0.7785,0.7784,0.7824,0.7832,0.7836,0.784,0.7791,0.7791,0.7791,0.7792,0.7918,0.7925,0.7897,0.7902,0.7879,0.7883,0.7861,0.7846,0.7845,0.7824,0.7829,0.7806,0.7844,0.7846,0.7794,0.7793,0.7793,0.7793,0.7793,0.7963,0.7963,0.7954,0.7947,0.7944,0.7919,0.7918,0.7898,0.7879,0.7883,0.7879,0.7878,0.7873,0.7883,0.7883,0.7883,0.7883,0.7883,0.7883,0.8013,0.8002,0.8004,0.7991,0.7986,0.7976,0.7951,0.7945,0.7932,0.7917,0.7917,0.7895,0.7852,0.7841,0.7885,0.7885,0.7885,0.7885,0.7884,0.8069,0.8052,0.8057,0.8052,0.8033,0.8029,0.8003,0.7991,0.7983,0.7983,0.7959,0.7932,0.792,0.7916,0.7906,0.7965,0.7965,0.7965,0.7965,0.8106,0.8098,0.8097,0.8089,0.8079,0.8054,0.8057,0.8037,0.8014,0.8007,0.7995,0.7981,0.7978,0.7968,0.7963,0.7953,0.8023,0.8023,0.8023,0.8138,0.8128,0.8136,0.8113,0.8096,0.8081,0.8083,0.8073,0.8043,0.8025,0.8,0.7998,0.7975,0.7969,0.795,0.7942,0.7924,0,0]},{"header":{"parameterUnit":"m.s-1","parameterCategory":1,"la1":30.2992,"la2":30.254,"lo1":-89.0895,"lo2":-89.0443,"dy":0.0025,"dx":0.0025,"nx":19,"ny":19,"refTime":"2026-04-16T09:00:00:Z","depth":0,"parameterNumber":3,"parameterNumberName":"V-component_of_WINDS"},"data":[0,0,0,1.6572,1.6573,1.6627,1.6627,1.6704,1.6705,0,0,0,0,0,0,0,0,0,0,0,1.6562,1.6563,1.6571,1.6573,1.6627,1.6627,1.6704,1.6705,0,0,0,0,0,0,0,0,0,0,0,1.6561,1.6562,1.6563,1.6573,1.6627,1.6627,1.6704,1.666,0,0,0,0,0,0,0,0,0,0,1.6606,1.6604,1.6562,1.6563,1.6574,1.6627,1.6627,1.6658,1.6663,1.6683,0,1.6704,0,1.6706,1.671,1.6711,0,0,0,1.6568,1.6599,1.6608,1.6563,1.6574,1.6626,1.6601,1.666,1.6666,1.669,1.6705,1.6708,1.6707,1.6711,1.6711,1.6848,1.6849,0,0,1.6565,1.6575,1.6604,1.6612,1.6605,1.6599,1.6603,1.6664,1.6681,1.6706,1.671,1.6708,1.6712,1.6712,1.6847,1.6848,0,0,0,1.656,1.6573,1.658,1.6609,1.6618,1.6601,1.6605,1.6678,1.6679,1.671,1.6709,1.6712,1.6713,1.6846,1.6847,1.6899,0,0,0,1.6558,1.657,1.6579,1.6585,1.6617,1.6649,1.6618,1.6675,1.6682,1.6709,1.6712,1.6714,1.6845,1.6847,1.6895,1.6922,0,0,0,1.6556,1.6569,1.6579,1.6586,1.6609,1.6648,1.6653,1.6676,1.6681,1.6711,1.6714,1.6844,1.6846,1.6892,1.6917,1.696,0,0,0,1.6557,1.6625,1.658,1.6655,1.6609,1.6679,1.6652,1.6704,1.6736,1.6712,1.6845,1.6847,1.6891,1.6914,1.6957,1.6999,1.7017,0,0,1.6648,1.6636,1.668,1.6641,1.6722,1.667,1.6758,1.6778,1.6772,1.6823,1.6826,1.6896,1.6916,1.6959,1.7115,1.713,0,0,0,1.6712,1.6743,1.6762,1.6792,1.6809,1.6824,1.6829,1.6836,1.6878,1.68,1.6923,1.6935,1.696,1.6979,1.6992,1.7012,1.6856,1.6856,1.6856,1.6855,1.6843,1.6913,1.6907,1.6936,1.694,1.6962,1.6972,1.6952,1.6981,1.6996,1.7092,1.7115,1.7125,1.7146,1.7017,1.7017,1.7017,1.7017,1.6987,1.7029,1.6999,1.7057,1.7043,1.7091,1.7096,1.708,1.7122,1.708,1.7101,1.7058,1.7141,1.7159,1.7021,1.702,1.702,1.702,1.7019,1.708,1.7098,1.7105,1.7145,1.7178,1.7169,1.721,1.7196,1.7183,1.7204,1.7218,1.7217,1.7215,1.7211,1.7212,1.7212,1.7212,1.7213,1.7213,1.7174,1.718,1.7217,1.7238,1.7254,1.7274,1.7276,1.7292,1.7305,1.7292,1.7292,1.7269,1.7151,1.7122,1.7218,1.7217,1.7216,1.7216,1.7216,1.7314,1.728,1.7337,1.7353,1.7376,1.7408,1.7389,1.7421,1.7432,1.7452,1.7423,1.7339,1.7326,1.7316,1.7292,1.7426,1.7426,1.7426,1.7426,1.7393,1.7384,1.7438,1.7465,1.7489,1.7477,1.754,1.7542,1.7538,1.7544,1.7522,1.7488,1.7479,1.7472,1.7458,1.7436,1.7603,1.7603,1.7603,1.7478,1.7471,1.7528,1.7524,1.754,1.7553,1.7612,1.7643,1.7632,1.761,1.7547,1.754,1.7486,1.7469,1.7448,1.7427,1.7386,0,0]}]]